Time,TemperatureF,DewpointF,PressureIn,WindDirection,WindDirectionDegrees,WindSpeedMPH,WindSpeedGustMPH,Humidity,HourlyPrecipIn,Conditions,Clouds,dailyrainin,SoftwareType,DateUTC
2013-05-19 00:02:00,66.9,64.2,30.06,SW,215,0.0,0.0,91,0.00,,---,0.00,VWS V13.01,2013-05-19 04:02:00,
2013-05-19 00:32:00,66.9,64.5,30.06,SW,215,0.0,0.0,92,0.00,,---,0.00,VWS V13.01,2013-05-19 04:32:00,
2013-05-19 01:02:00,66.3,63.9,30.06,SW,215,0.0,1.0,92,0.00,,---,0.00,VWS V13.01,2013-05-19 05:02:00,
2013-05-19 01:32:00,66.2,63.8,30.05,SW,215,0.0,0.0,92,0.00,,---,0.00,VWS V13.01,2013-05-19 05:32:00,
2013-05-19 02:02:00,66.1,63.7,30.05,SW,215,0.0,0.0,92,0.00,,---,0.00,VWS V13.01,2013-05-19 06:02:00,
2013-05-19 02:32:00,66.1,63.4,30.05,SW,215,0.0,0.0,91,0.00,,---,0.00,VWS V13.01,2013-05-19 06:32:00,
2013-05-19 03:02:00,65.9,63.2,30.05,SW,215,0.0,0.0,91,0.00,,---,0.00,VWS V13.01,2013-05-19 07:02:00,
2013-05-19 03:32:00,65.9,63.2,30.04,SSW,209,0.0,4.0,91,0.02,,---,0.02,VWS V13.01,2013-05-19 07:32:00,
2013-05-19 04:02:00,65.8,63.4,30.04,SSW,209,0.0,2.0,92,0.02,,---,0.02,VWS V13.01,2013-05-19 08:02:00,
2013-05-19 04:32:00,65.8,63.7,30.04,SSW,209,0.0,0.0,93,0.02,,---,0.02,VWS V13.01,2013-05-19 08:32:00,
2013-05-19 05:02:00,65.8,64.0,30.04,SSW,209,0.0,0.0,94,0.00,,---,0.02,VWS V13.01,2013-05-19 09:02:00,
2013-05-19 05:32:00,65.8,64.3,30.05,SSW,209,0.0,0.0,95,0.01,,---,0.03,VWS V13.01,2013-05-19 09:32:00,
2013-05-19 06:02:00,65.8,64.3,30.05,SSW,209,0.0,0.0,95,0.01,,---,0.03,VWS V13.01,2013-05-19 10:02:00,
2013-05-19 06:32:00,65.9,64.4,30.06,SSW,209,0.0,0.0,95,0.03,,---,0.05,VWS V13.01,2013-05-19 10:32:00,
2013-05-19 07:02:00,66.1,64.6,30.07,SSW,209,0.0,0.0,95,0.02,,---,0.05,VWS V13.01,2013-05-19 11:02:00,
2013-05-19 07:32:00,66.4,65.2,30.08,SSW,209,0.0,1.0,96,0.02,,---,0.05,VWS V13.01,2013-05-19 11:32:00,
2013-05-19 08:02:00,66.3,65.1,30.09,SSW,209,0.0,1.0,96,0.00,,---,0.05,VWS V13.01,2013-05-19 12:02:00,
2013-05-19 08:32:00,66.4,65.2,30.09,SSW,209,0.0,0.0,96,0.00,,---,0.05,VWS V13.01,2013-05-19 12:32:00,
2013-05-19 09:02:00,66.6,65.4,30.09,SSW,209,0.0,0.0,96,0.05,,---,0.10,VWS V13.01,2013-05-19 13:02:00,
2013-05-19 09:32:00,66.9,65.7,30.09,SSW,209,0.0,3.0,96,0.08,,---,0.13,VWS V13.01,2013-05-19 13:32:00,
2013-05-19 10:02:00,67.8,66.3,30.09,WSW,247,0.0,4.0,95,0.08,,---,0.13,VWS V13.01,2013-05-19 14:02:00,
2013-05-19 10:32:00,68.3,66.2,30.08,NNW,327,0.0,4.0,93,0.03,,---,0.13,VWS V13.01,2013-05-19 14:32:00,
2013-05-19 11:02:00,69.3,65.9,30.09,NW,305,0.0,3.0,89,0.00,,---,0.13,VWS V13.01,2013-05-19 15:02:00,
2013-05-19 11:32:00,69.9,65.2,30.08,South,184,0.0,5.0,85,0.00,,---,0.13,VWS V13.01,2013-05-19 15:32:00,
2013-05-19 12:02:00,71.1,65.7,30.08,SSW,193,1.0,7.0,83,0.01,,---,0.14,VWS V13.01,2013-05-19 16:02:00,
2013-05-19 12:32:00,73.4,66.5,30.06,SSW,200,2.0,9.0,79,0.01,,---,0.14,VWS V13.01,2013-05-19 16:32:00,
2013-05-19 13:03:00,73.7,66.4,30.07,SSW,197,0.0,4.0,78,0.01,,---,0.14,VWS V13.01,2013-05-19 17:03:00,
2013-05-19 13:32:00,74.7,66.3,30.05,SSW,193,0.0,5.0,75,0.00,,---,0.14,VWS V13.01,2013-05-19 17:32:00,
2013-05-19 14:02:00,74.7,65.9,30.05,NW,304,1.0,5.0,74,0.00,,---,0.14,VWS V13.01,2013-05-19 18:02:00,
2013-05-19 14:32:00,75.1,65.9,30.03,WNW,288,0.0,4.0,73,0.00,,---,0.14,VWS V13.01,2013-05-19 18:32:00,
2013-05-19 15:02:00,75.6,65.9,30.04,NW,316,0.0,4.0,72,0.00,,---,0.14,VWS V13.01,2013-05-19 19:02:00,
2013-05-19 15:32:00,74.6,66.2,30.03,North,3,0.0,4.0,75,0.00,,---,0.14,VWS V13.01,2013-05-19 19:32:00,
2013-05-19 16:02:00,75.7,66.0,29.17,South,173,0.0,4.0,72,0.00,,---,0.00,VWS V13.01,2013-05-19 20:02:00,
2013-05-19 16:32:00,75.7,65.6,29.50,NNW,333,0.0,5.0,71,0.00,,---,0.00,VWS V13.01,2013-05-19 20:32:00,
2013-05-19 17:02:00,75.0,65.8,29.70,South,178,3.0,7.0,73,0.00,,---,0.00,VWS V13.01,2013-05-19 21:02:00,
2013-05-19 17:32:00,74.8,65.6,29.81,SSW,205,0.0,5.0,73,0.00,,---,0.00,VWS V13.01,2013-05-19 21:32:00,
2013-05-19 18:02:00,74.9,65.7,29.88,SSW,205,1.0,4.0,73,0.00,,---,0.00,VWS V13.01,2013-05-19 22:02:00,
2013-05-19 18:32:00,73.5,64.3,29.92,SSW,195,1.0,7.0,73,0.00,,---,0.00,VWS V13.01,2013-05-19 22:32:00,
2013-05-19 19:02:00,73.3,64.5,29.96,SSE,168,0.0,4.0,74,0.00,,---,0.00,VWS V13.01,2013-05-19 23:02:00,
2013-05-19 19:32:00,72.2,64.6,29.99,South,173,0.0,4.0,77,0.00,,---,0.00,VWS V13.01,2013-05-19 23:32:00,
2013-05-19 20:02:00,71.7,64.5,30.00,South,173,0.0,1.0,78,0.00,,---,0.00,VWS V13.01,2013-05-20 00:02:00,
2013-05-19 20:32:00,70.9,64.8,30.02,South,173,0.0,0.0,81,0.00,,---,0.00,VWS V13.01,2013-05-20 00:32:00,
2013-05-19 21:02:00,70.5,64.8,30.01,South,173,0.0,0.0,82,0.00,,---,0.00,VWS V13.01,2013-05-20 01:02:00,
2013-05-19 21:32:00,69.3,64.3,30.02,South,173,0.0,0.0,84,0.00,,---,0.00,VWS V13.01,2013-05-20 01:32:00,
2013-05-19 22:02:00,68.0,63.7,30.04,South,173,0.0,0.0,86,0.00,,---,0.00,VWS V13.01,2013-05-20 02:02:00,
2013-05-19 22:32:00,66.8,63.1,30.04,South,173,0.0,0.0,88,0.00,,---,0.00,VWS V13.01,2013-05-20 02:32:00,
2013-05-19 23:02:00,66.0,63.0,30.05,South,173,0.0,0.0,90,0.00,,---,0.00,VWS V13.01,2013-05-20 03:02:00,
2013-05-19 23:32:00,65.0,62.0,30.05,South,173,0.0,0.0,90,0.00,,---,0.00,VWS V13.01,2013-05-20 03:32:00,